Find Local Weather

World > North America > United States > Illinois

Stonefort, Illinois Regional Weather

Lat: 37.62N, Lon: 88.71W
Wx Zone: ILZ086
Warning FLW WEATHER ALERT - (More Info. Click Here) Warning
Feedback
Expires:201808190400;;284588
ASUS43 KLOT 190309
RWRIL 

ILLINOIS REGIONAL WEATHER ROUNDUP
NATIONAL WEATHER SERVICE CHICAGO/ROMEOVILLE IL
1000 PM CDT SAT AUG 18 2018

NOTE: "FAIR" INDICATES FEW OR NO CLOUDS BELOW 12,000 FEET WITH NO
SIGNIFICANT WEATHER AND/OR OBSTRUCTIONS TO VISIBILITY.

* THESE STATIONS ARE NOT UNDER NWS QUALITY CONTROL. THEY ALSO MAY NOT
  REPORT WEATHER SUCH AS PRECIPITATION OR FOG.


ILZ064>066-069>071-074>076-080>082-084>086-088>090-092>094-190400-
SOUTH-CENTRAL ILLINOIS
  
CITY           SKY/WX    TMP DP  RH WIND       PRES   REMARKS
CARBONDALE     FAIR      73  72  96 CALM      29.95R                  
CAIRO*         FAIR      72  71  98 CALM      29.94S                  
EFFINGHAM*     FAIR      71  71  99 CALM      29.98S                  
MARION         MOCLDY    72  71  95 CALM      29.97R                  
MT. VERNON     FAIR      70  69  97 CALM      29.96  FOG              
CENTRALIA*     CLEAR     71  71 100 CALM      29.96R                  
SALEM*         FAIR      72  71  95 CALM      29.96S                  
METROPOLIS*    FAIR      72  71  96 CALM      29.95S                  
$$


SKY/WX - Weather  TMP - Temperature  DP - Dewpoint  RH - Relative Humidity
WIND - Wind Direction/Speed PRES - Barometric Pressure